[[{"header":{"parameterUnit":"m.s-1","parameterCategory":1,"la1":30.2991,"la2":30.254,"lo1":-89.0895,"lo2":-89.0444,"dy":0.0017,"dx":0.0017,"nx":28,"ny":28,"refTime":"2024-06-05T21:00:00:Z","depth":0,"parameterNumber":2,"parameterNumberName":"U-component_of_WINDS"},"data":[0,0,0,0,0,0,0,0,0,0,0,0,0,0,0,0,0,0,0,0,0,0,0,0,0,0,0,0,0,0,0,0,0,0,0,0,0,0,0,0,0,0,0,0,0,0,0,0,0,0,0,0,0,0,0,0,0,0,-0.3648,-0.3647,0,-0.3571,-0.357,-0.3569,-0.3512,-0.3512,-0.3511,-0.3511,-0.3431,-0.3429,-0.3428,0,0,0,0,0,0,0,0,0,0,0,0,0,-0.3746,-0.3745,-0.3648,-0.3647,-0.3646,-0.3571,-0.357,-0.3569,-0.3512,-0.3512,-0.3511,-0.351,-0.3431,-0.3429,-0.3427,0,0,0,0,0,0,0,0,0,0,0,0,0,-0.369,-0.3744,-0.3648,-0.3609,-0.3604,-0.3571,-0.357,-0.3569,-0.3512,-0.3512,-0.3511,-0.351,-0.3432,-0.343,-0.3427,-0.3427,0,0,-0.342,-0.3419,0,0,0,0,0,0,0,0,-0.3693,-0.3687,-0.3615,-0.3611,-0.3606,-0.355,-0.3576,-0.3521,-0.3512,-0.3547,-0.3511,-0.351,-0.3471,-0.3465,-0.3453,-0.3423,-0.342,-0.3419,-0.3418,-0.3417,-0.3416,0,0,0,0,0,0,0,-0.3697,-0.3689,-0.3617,-0.3615,-0.3609,-0.3595,-0.3586,-0.3565,-0.3514,-0.3544,-0.354,-0.3532,-0.3469,-0.3455,-0.345,-0.3419,-0.3419,-0.3417,-0.3416,-0.3415,-0.3388,-0.3388,0,0,0,0,0,0,-0.3707,-0.3693,-0.362,-0.3615,-0.3649,-0.3594,-0.3584,-0.3569,-0.3514,-0.3505,-0.3532,-0.3529,-0.346,-0.3453,-0.3447,-0.3445,-0.3417,-0.3415,-0.3413,-0.3387,-0.3388,-0.3389,0,0,0,0,0,0,-0.371,-0.3701,-0.3623,-0.3653,-0.3642,-0.3593,-0.3577,-0.3568,-0.3554,-0.3505,-0.3496,-0.3528,-0.3459,-0.3451,-0.3433,-0.3441,-0.3413,-0.3411,-0.3386,-0.3387,-0.3388,-0.3439,0,0,0,0,0,0,-0.3713,-0.3703,-0.3702,-0.3653,-0.3641,-0.361,-0.3577,-0.3567,-0.3551,-0.3546,-0.3499,-0.349,-0.3458,-0.3437,-0.3431,-0.3437,-0.3409,-0.3385,-0.3387,-0.3388,-0.3436,-0.3441,-0.3446,0,0,0,0,0,-0.3716,-0.3718,-0.3702,-0.3693,-0.3638,-0.361,-0.3603,-0.3566,-0.3551,-0.355,-0.3519,-0.3492,-0.3442,-0.3436,-0.3428,-0.3434,-0.3384,-0.3386,-0.3388,-0.3434,-0.344,-0.3446,0,0,0,0,0,0,-0.3768,-0.3711,-0.3692,-0.3678,-0.365,-0.3601,-0.3598,-0.3574,-0.3548,-0.3545,-0.3499,-0.3489,-0.3477,-0.3453,-0.3448,-0.3432,-0.341,-0.341,-0.3447,-0.3453,-0.3458,-0.3464,-0.3407,0,0,0,0,0,-0.3778,-0.3759,-0.3711,-0.3704,-0.369,-0.3647,-0.3633,-0.3608,-0.3576,-0.3563,-0.3531,-0.3501,-0.3479,-0.3465,-0.3441,-0.3433,-0.3423,-0.3433,-0.3439,-0.3443,-0.3443,-0.3439,-0.3444,-0.3394,-0.3394,-0.3394,0,0,-0.3797,-0.3764,-0.3755,-0.3713,-0.3688,-0.3671,-0.3637,-0.362,-0.3607,-0.356,-0.3542,-0.3518,-0.3482,-0.3469,-0.3462,-0.3449,-0.3455,-0.3445,-0.3449,-0.3447,-0.3441,-0.3446,-0.345,-0.3396,-0.3395,-0.3395,0,0,-0.3824,-0.3797,-0.3789,-0.3765,-0.3728,-0.3699,-0.3698,-0.3653,-0.3635,-0.3616,-0.3581,-0.3566,-0.3528,-0.3504,-0.3487,-0.3509,-0.3483,-0.3502,-0.3528,-0.3524,-0.3528,-0.3531,-0.354,-0.3543,-0.3503,-0.3503,-0.3503,0,-0.3853,-0.3826,-0.3787,-0.3773,-0.3756,-0.3715,-0.3706,-0.3685,-0.3642,-0.3631,-0.3618,-0.3571,-0.3544,-0.3526,-0.3532,-0.3519,-0.3516,-0.3507,-0.3531,-0.3533,-0.3536,-0.3543,-0.3547,-0.3506,-0.3506,-0.3505,-0.3505,0,-0.3864,-0.3846,-0.3844,-0.3804,-0.3787,-0.3776,-0.3736,-0.3724,-0.37,-0.3674,-0.3656,-0.3622,-0.3592,-0.3586,-0.3562,-0.3566,-0.3559,-0.3539,-0.3515,-0.3544,-0.355,-0.3553,-0.351,-0.3509,-0.3508,-0.3507,0,0,-0.3919,-0.3861,-0.386,-0.3843,-0.38,-0.3785,-0.3773,-0.3744,-0.3735,-0.3707,-0.3696,-0.3667,-0.3649,-0.3629,-0.3603,-0.36,-0.3621,-0.358,-0.3579,-0.3589,-0.3623,-0.3639,-0.3643,-0.3604,-0.3604,-0.3604,-0.3627,0,-0.394,-0.3915,-0.3881,-0.3868,-0.3852,-0.3814,-0.3803,-0.3776,-0.3752,-0.3734,-0.3707,-0.3687,-0.3664,-0.3653,-0.3648,-0.3619,-0.3627,-0.3617,-0.3593,-0.3593,-0.3603,-0.3646,-0.3661,-0.3684,-0.3629,-0.3629,-0.363,0,-0.396,-0.3936,-0.3921,-0.3882,-0.3873,-0.3864,-0.3837,-0.3821,-0.379,-0.3773,-0.3753,-0.3725,-0.3711,-0.3691,-0.3671,-0.3665,-0.3654,-0.3639,-0.3639,-0.3635,-0.3613,-0.3643,-0.369,-0.3694,-0.3633,-0.3633,-0.3632,0,-0.4002,-0.3966,-0.3953,-0.3939,-0.3893,-0.3888,-0.3868,-0.3837,-0.3822,-0.3798,-0.3789,-0.3763,-0.3749,-0.3731,-0.3697,-0.3685,-0.3682,-0.3658,-0.3667,-0.3668,-0.3667,-0.3668,-0.3713,-0.3661,-0.3661,-0.3661,-0.3661,0,-0.4029,-0.4021,-0.3972,-0.3964,-0.3955,-0.3917,-0.391,-0.3887,-0.386,-0.3847,-0.3813,-0.3802,-0.3758,-0.3743,-0.3717,-0.3705,-0.3699,-0.3685,-0.3678,-0.3688,-0.369,-0.3679,-0.3677,-0.3662,-0.3661,-0.3661,-0.3661,0,-0.4074,-0.404,-0.4024,-0.3982,-0.3972,-0.3967,-0.3931,-0.3923,-0.3897,-0.3882,-0.3876,-0.3836,-0.3816,-0.3781,-0.3751,-0.3733,-0.3728,-0.3716,-0.3738,-0.3734,-0.3745,-0.3745,-0.3785,-0.3789,-0.3734,-0.3735,-0.3735,0,-0.4093,-0.4087,-0.4045,-0.4034,-0.4016,-0.3999,-0.3985,-0.3948,-0.3935,-0.3901,-0.3897,-0.3875,-0.3854,-0.3824,-0.3793,-0.377,-0.3757,-0.3773,-0.3753,-0.3764,-0.3758,-0.3759,-0.3759,-0.3778,-0.3778,-0.3779,-0.3779,0,-0.413,-0.4115,-0.4095,-0.4071,-0.4056,-0.4034,-0.4012,-0.4005,-0.3963,-0.395,-0.393,-0.3915,-0.3885,-0.3863,-0.3836,-0.3816,-0.3791,-0.3786,-0.3787,-0.3797,-0.381,-0.3804,-0.375,-0.3785,-0.3785,-0.3784,-0.3784,-0.3784,-0.4163,-0.4157,-0.4127,-0.4107,-0.4086,-0.4067,-0.4057,-0.4031,-0.4013,-0.3986,-0.3966,-0.3948,-0.3919,-0.3881,-0.3863,-0.3848,-0.3836,-0.3837,-0.3838,-0.3839,-0.3843,-0.3813,-0.3843,-0.3843,-0.3843,-0.3842,-0.3842,0,-0.4199,-0.4179,-0.4161,-0.4131,-0.4116,-0.4095,-0.4069,-0.4058,-0.4042,-0.4018,-0.4,-0.3977,-0.3957,-0.3925,-0.3902,-0.3897,-0.3885,-0.3892,-0.3892,-0.3888,-0.3854,-0.3856,-0.3902,-0.3902,-0.3902,-0.3902,-0.3902,-0.3902,-0.4216,-0.4204,-0.4186,-0.4164,-0.4143,-0.4125,-0.4113,-0.4095,-0.4075,-0.4052,-0.4035,-0.4015,-0.3988,-0.3963,-0.3944,-0.3935,-0.3928,-0.3939,-0.3927,-0.3896,-0.389,-0.3885,-0.3886,-0.3938,-0.3938,-0.3962,-0.3962,-0.3963]},{"header":{"parameterUnit":"m.s-1","parameterCategory":1,"la1":30.2991,"la2":30.254,"lo1":-89.0895,"lo2":-89.0444,"dy":0.0017,"dx":0.0017,"nx":28,"ny":28,"refTime":"2024-06-05T21:00:00:Z","depth":0,"parameterNumber":3,"parameterNumberName":"V-component_of_WINDS"},"data":[0,0,0,0,0,0,0,0,0,0,0,0,0,0,0,0,0,0,0,0,0,0,0,0,0,0,0,0,0,0,0,0,0,0,0,0,0,0,0,0,0,0,0,0,0,0,0,0,0,0,0,0,0,0,0,0,0,0,2.9364,2.9364,0,2.9377,2.9377,2.9377,2.9436,2.9438,2.9439,2.944,2.9449,2.9448,2.9447,0,0,0,0,0,0,0,0,0,0,0,0,0,2.9384,2.9383,2.9364,2.9364,2.9364,2.9377,2.9377,2.9377,2.9436,2.9438,2.9439,2.9441,2.945,2.9448,2.9447,0,0,0,0,0,0,0,0,0,0,0,0,0,2.9384,2.9383,2.9364,2.9395,2.9398,2.9377,2.9377,2.9377,2.9436,2.9438,2.944,2.9442,2.945,2.9448,2.9447,2.9395,0,0,2.9442,2.9441,0,0,0,0,0,0,0,0,2.9384,2.9383,2.939,2.9393,2.9396,2.9407,2.9388,2.9383,2.9435,2.9421,2.944,2.9443,2.9433,2.9433,2.9431,2.9396,2.9396,2.9442,2.9441,2.944,2.944,0,0,0,0,0,0,0,2.9384,2.9383,2.9369,2.939,2.9394,2.9407,2.9409,2.9387,2.9415,2.9422,2.9427,2.9428,2.9435,2.9432,2.9432,2.9396,2.9442,2.9441,2.944,2.9439,2.9318,2.9315,0,0,0,0,0,0,2.938,2.9382,2.9368,2.9369,2.9395,2.9405,2.9407,2.9401,2.9416,2.942,2.9426,2.9431,2.9434,2.9433,2.9432,2.9371,2.944,2.9439,2.9438,2.932,2.9317,2.9315,0,0,0,0,0,0,2.938,2.9378,2.9368,2.9377,2.9377,2.9402,2.9395,2.9401,2.9398,2.9418,2.9423,2.9418,2.9436,2.9434,2.9404,2.9372,2.9438,2.9437,2.9322,2.9319,2.9316,2.9249,0,0,0,0,0,0,2.9381,2.9378,2.936,2.9376,2.9376,2.9341,2.9393,2.9399,2.9395,2.9401,2.9412,2.9416,2.9437,2.9406,2.9402,2.9371,2.9435,2.9325,2.9321,2.9317,2.9254,2.9244,2.9235,0,0,0,0,0,2.9381,2.934,2.9358,2.9356,2.9354,2.9339,2.9339,2.9365,2.9393,2.9374,2.9387,2.9416,2.9377,2.9402,2.9399,2.9367,2.9327,2.9322,2.9317,2.9259,2.9246,2.9235,0,0,0,0,0,0,2.9317,2.9343,2.9363,2.9327,2.933,2.9349,2.9326,2.9351,2.9346,2.9351,2.9383,2.9385,2.9349,2.9355,2.9383,2.9317,2.9357,2.9351,2.9314,2.9302,2.9292,2.929,2.9434,0,0,0,0,0,2.9299,2.9286,2.9309,2.9274,2.9275,2.93,2.9294,2.9314,2.9319,2.932,2.9331,2.9333,2.9321,2.9312,2.9302,2.9256,2.9258,2.9232,2.9223,2.9215,2.9208,2.9182,2.917,2.9298,2.9298,2.9298,0,0,2.9261,2.9273,2.9263,2.9261,2.9267,2.925,2.9301,2.9282,2.927,2.9317,2.9288,2.9297,2.93,2.9261,2.9245,2.9265,2.9174,2.9208,2.9202,2.9199,2.9175,2.9163,2.9152,2.9294,2.9295,2.9295,0,0,2.9183,2.9192,2.9164,2.9168,2.9176,2.9193,2.9186,2.92,2.9208,2.9181,2.9215,2.92,2.918,2.918,2.9178,2.91,2.9125,2.9096,2.9045,2.9019,2.9009,2.9,2.8969,2.8958,2.909,2.909,2.909,0,2.9134,2.9113,2.9145,2.9124,2.9121,2.9165,2.9135,2.9137,2.914,2.9136,2.916,2.9134,2.914,2.9101,2.9082,2.908,2.907,2.9094,2.9008,2.8999,2.8992,2.8963,2.8952,2.9086,2.9087,2.9087,2.9087,0,2.9051,2.9036,2.9012,2.9015,2.901,2.8984,2.9011,2.9001,2.9022,2.9036,2.9006,2.9015,2.9007,2.9,2.9019,2.8962,2.8975,2.9003,2.9043,2.8975,2.8948,2.8938,2.9081,2.9082,2.9083,2.9084,0,0,2.8932,2.8954,2.8944,2.8945,2.8957,2.8945,2.8921,2.8915,2.8905,2.8906,2.8884,2.8866,2.8892,2.8889,2.8909,2.8887,2.8821,2.8917,2.8918,2.8897,2.8756,2.8733,2.872,2.8839,2.8838,2.8836,2.8755,0,2.8855,2.8817,2.8844,2.88,2.8785,2.8826,2.8805,2.8808,2.8821,2.8808,2.8822,2.8807,2.8844,2.8842,2.8822,2.8833,2.8793,2.884,2.8817,2.8816,2.8812,2.8706,2.8682,2.8605,2.8745,2.8743,2.8742,0,2.8761,2.8759,2.8713,2.8727,2.8721,2.8702,2.8697,2.8686,2.869,2.8701,2.8697,2.8723,2.8698,2.874,2.8705,2.8736,2.8728,2.8733,2.873,2.8727,2.8773,2.8697,2.8581,2.8569,2.8726,2.8728,2.8729,0,2.8675,2.8661,2.8631,2.8631,2.8647,2.8632,2.8638,2.8645,2.8639,2.8635,2.863,2.8623,2.8618,2.8611,2.8633,2.8662,2.8593,2.8638,2.8598,2.8598,2.858,2.858,2.8458,2.8579,2.858,2.858,2.858,0,2.8585,2.8555,2.8593,2.8574,2.854,2.8573,2.8538,2.8548,2.8553,2.8536,2.8572,2.8554,2.8586,2.857,2.8588,2.8554,2.8552,2.8558,2.8562,2.8553,2.8552,2.8546,2.8551,2.8577,2.8577,2.8578,2.8579,0,2.8483,2.8507,2.8477,2.8495,2.8499,2.8473,2.8488,2.847,2.8486,2.8463,2.8459,2.8482,2.8466,2.8488,2.8474,2.8485,2.8438,2.8452,2.8437,2.844,2.8399,2.8401,2.8267,2.825,2.8384,2.8383,2.8382,0,2.8423,2.84,2.8416,2.8408,2.8412,2.8398,2.8392,2.8423,2.8415,2.8418,2.8399,2.8387,2.8378,2.835,2.8364,2.8353,2.8365,2.8319,2.8363,2.8354,2.8361,2.8361,2.8357,2.8308,2.8307,2.8306,2.8304,0,2.8312,2.8326,2.8317,2.8312,2.8304,2.8302,2.8301,2.8292,2.8324,2.8313,2.8298,2.8291,2.8277,2.8263,2.8256,2.8259,2.8285,2.8291,2.8281,2.827,2.8261,2.8262,2.8409,2.8293,2.8294,2.8295,2.8296,2.8296,2.8228,2.8209,2.8217,2.8206,2.8209,2.8208,2.8192,2.8205,2.8194,2.8186,2.8204,2.8184,2.8187,2.8181,2.8181,2.8164,2.8184,2.817,2.8166,2.8161,2.8154,2.8266,2.8163,2.8164,2.8164,2.8164,2.8165,0,2.8117,2.8125,2.8114,2.8113,2.8103,2.8132,2.8133,2.8122,2.8104,2.8107,2.8098,2.8079,2.8065,2.8079,2.8067,2.8051,2.8062,2.8046,2.8046,2.8046,2.8138,2.8147,2.8037,2.8037,2.8037,2.8037,2.8037,2.8037,2.8058,2.8028,2.8042,2.8012,2.802,2.8002,2.7999,2.7997,2.7999,2.7977,2.7967,2.7976,2.7982,2.7971,2.7959,2.7963,2.7956,2.7935,2.7942,2.8028,2.804,2.8052,2.806,2.7934,2.7933,2.7852,2.7851,2.785]}]]